Location: Campestrin
(46.4667°N, 11.7167°E)
Time: 17:14:27
(UTC+00:00)

Spot 2 Rocket - Pass Details

Date: 18 April 2021
Orbit: 756 x 773 km, 98.5° (Epoch: 07 May)

Event Time Altitude Azimuth Distance (km) Brightness Sun altitude
Exits shadow 19:41:32 24° 113° (ESE) 1,536 4.5 -15.6°
Maximum altitude 19:43:47 37° 67° (ENE) 1,192 4.2 -16.0°
Drops below altitude 10° 19:48:25 10° 1° (N) 2,312 6.5 -16.6°
Sets 19:50:52 0° 353° (N) 3,240 7.4 -16.9°
